Time,TemperatureF,DewpointF,PressureIn,WindDirection,WindDirectionDegrees,WindSpeedMPH,WindSpeedGustMPH,Humidity,HourlyPrecipIn,Conditions,Clouds,dailyrainin,SoftwareType,DateUTC
2013-12-10 00:12:00,29.0,25.0,29.96,WSW,240,9.0,15.0,85,0.00,,,0.00,,2013-12-10 05:12:00,
2013-12-10 00:22:00,29.0,25.0,29.96,WSW,257,4.0,9.0,84,0.00,,,0.00,,2013-12-10 05:22:00,
2013-12-10 00:42:00,28.0,24.0,29.96,WSW,255,5.0,12.0,85,0.00,,,0.00,,2013-12-10 05:42:00,
2013-12-10 00:53:00,28.0,24.0,29.95,WSW,238,4.0,8.0,84,0.00,,,0.00,,2013-12-10 05:53:00,
2013-12-10 01:12:00,28.0,24.0,29.95,West,278,4.0,12.0,84,0.00,,,0.00,,2013-12-10 06:12:00,
2013-12-10 01:22:00,28.0,24.0,29.94,SW,215,3.0,9.0,83,0.00,,,0.00,,2013-12-10 06:22:00,
2013-12-10 01:42:00,28.0,24.0,29.95,West,269,7.0,13.0,83,0.00,,,0.00,,2013-12-10 06:42:00,
2013-12-10 01:52:00,28.0,24.0,29.96,SW,231,3.0,12.0,84,0.00,,,0.00,,2013-12-10 06:52:00,
2013-12-10 02:22:00,28.0,24.0,29.94,WNW,285,4.0,10.0,83,0.00,,,0.00,,2013-12-10 07:22:00,
2013-12-10 02:42:00,28.0,24.0,29.94,WSW,252,5.0,9.0,83,0.00,,,0.00,,2013-12-10 07:42:00,
2013-12-10 02:52:00,28.0,24.0,29.95,WSW,256,7.0,10.0,83,0.00,,,0.00,,2013-12-10 07:52:00,
2013-12-10 03:12:00,28.0,24.0,29.95,SW,236,5.0,11.0,83,0.00,,,0.00,,2013-12-10 08:12:00,
2013-12-10 03:22:00,28.0,24.0,29.97,SSW,207,5.0,9.0,83,0.00,,,0.00,,2013-12-10 08:22:00,
2013-12-10 03:42:00,28.0,24.0,29.98,SSW,210,3.0,12.0,83,0.00,,,0.00,,2013-12-10 08:42:00,
2013-12-10 03:52:00,28.0,24.0,29.99,SW,215,5.0,12.0,83,0.00,,,0.00,,2013-12-10 08:52:00,
2013-12-10 04:11:00,28.0,24.0,30.00,West,260,4.0,8.0,83,0.00,,,0.00,,2013-12-10 09:11:00,
2013-12-10 04:22:00,28.0,23.0,29.98,WNW,294,5.0,9.0,82,0.00,,,0.00,,2013-12-10 09:22:00,
2013-12-10 04:44:00,27.0,22.0,29.96,SSW,203,2.0,5.0,82,0.00,,,0.00,,2013-12-10 09:44:00,
2013-12-10 04:54:00,27.0,22.0,29.96,West,277,5.0,8.0,82,0.00,,,0.00,,2013-12-10 09:54:00,
2013-12-10 05:22:00,27.0,22.0,29.90,West,260,2.0,9.0,81,0.00,,,0.00,,2013-12-10 10:22:00,
2013-12-10 05:43:00,27.0,23.0,29.92,WNW,297,5.0,7.0,83,0.00,,,0.00,,2013-12-10 10:43:00,
2013-12-10 05:53:00,27.0,23.0,29.95,SSW,197,3.0,4.0,84,0.00,,,0.00,,2013-12-10 10:53:00,
2013-12-10 06:12:00,27.0,23.0,29.96,WSW,257,4.0,7.0,84,0.00,,,0.00,,2013-12-10 11:12:00,
2013-12-10 06:23:00,27.0,22.0,29.94,West,274,2.0,7.0,82,0.00,,,0.00,,2013-12-10 11:23:00,
2013-12-10 06:43:00,27.0,22.0,29.93,West,274,3.0,8.0,82,0.00,,,0.00,,2013-12-10 11:43:00,
2013-12-10 06:53:00,27.0,22.0,29.92,SW,221,4.0,7.0,80,0.00,,,0.00,,2013-12-10 11:53:00,
2013-12-10 07:12:00,26.0,20.0,29.94,WNW,282,3.0,9.0,79,0.00,,,0.00,,2013-12-10 12:12:00,
2013-12-10 07:22:00,26.0,21.0,29.96,SSW,199,0.0,3.0,80,0.00,,,0.00,,2013-12-10 12:22:00,
2013-12-10 07:42:00,26.0,21.0,29.93,SW,230,0.0,3.0,80,0.00,,,0.00,,2013-12-10 12:42:00,
2013-12-10 07:52:00,26.0,21.0,29.91,WNW,283,2.0,5.0,80,0.00,,,0.00,,2013-12-10 12:52:00,
2013-12-10 08:22:00,26.0,19.0,29.92,WNW,283,4.0,9.0,75,0.00,,,0.00,,2013-12-10 13:22:00,
2013-12-10 08:52:00,26.0,19.0,29.91,WNW,291,3.0,11.0,75,0.00,,,0.00,,2013-12-10 13:52:00,
2013-12-10 09:22:00,25.0,19.0,29.91,WSW,246,2.0,6.0,79,0.00,,,0.00,,2013-12-10 14:22:00,
2013-12-10 09:52:00,25.0,21.0,29.90,WNW,293,2.0,8.0,83,0.00,,,0.00,,2013-12-10 14:52:00,
2013-12-10 10:22:00,25.0,22.0,29.91,WSW,247,0.0,2.0,88,0.00,,,0.00,,2013-12-10 15:22:00,
2013-12-10 10:44:00,24.0,21.0,29.91,WNW,294,1.0,5.0,88,0.00,,,0.00,,2013-12-10 15:44:00,
2013-12-10 10:53:00,24.0,22.0,29.91,West,274,5.0,9.0,90,0.00,,,0.00,,2013-12-10 15:53:00,
2013-12-10 11:23:00,23.0,21.0,29.90,NW,309,2.0,9.0,91,0.00,,,0.00,,2013-12-10 16:23:00,
2013-12-10 11:43:00,24.0,20.0,29.89,WSW,257,4.0,9.0,85,0.00,,,0.00,,2013-12-10 16:43:00,
2013-12-10 11:52:00,24.0,20.0,29.88,WNW,284,5.0,11.0,83,0.00,,,0.00,,2013-12-10 16:52:00,
2013-12-10 12:22:00,25.0,20.0,29.88,SW,225,4.0,11.0,81,0.00,,,0.00,,2013-12-10 17:22:00,
2013-12-10 12:52:00,25.0,19.0,29.87,West,263,6.0,14.0,79,0.00,,,0.00,,2013-12-10 17:52:00,
2013-12-10 13:11:00,26.0,20.0,29.87,South,184,6.0,11.0,79,0.00,,,0.00,,2013-12-10 18:11:00,
2013-12-10 13:22:00,26.0,20.0,29.87,West,266,8.0,12.0,78,0.00,,,0.00,,2013-12-10 18:22:00,
2013-12-10 13:42:00,27.0,21.0,29.87,WSW,250,5.0,15.0,77,0.00,,,0.00,,2013-12-10 18:42:00,
2013-12-10 13:53:00,27.0,20.0,29.86,West,262,8.0,14.0,73,0.00,,,0.00,,2013-12-10 18:53:00,
2013-12-10 14:11:00,27.0,20.0,29.86,SW,233,6.0,13.0,73,0.00,,,0.00,,2013-12-10 19:11:00,
2013-12-10 14:22:00,26.0,17.0,29.86,WSW,248,10.0,15.0,69,0.00,,,0.00,,2013-12-10 19:22:00,
2013-12-10 14:42:00,27.0,18.0,29.86,SSE,153,6.0,13.0,69,0.00,,,0.00,,2013-12-10 19:42:00,
2013-12-10 14:52:00,26.0,16.0,29.86,WNW,284,10.0,19.0,66,0.00,,,0.00,,2013-12-10 19:52:00,
2013-12-10 15:11:00,25.0,15.0,29.87,West,274,8.0,14.0,66,0.00,,,0.00,,2013-12-10 20:11:00,
2013-12-10 15:22:00,26.0,15.0,29.88,West,281,13.0,20.0,63,0.00,,,0.00,,2013-12-10 20:22:00,
2013-12-10 15:42:00,26.0,15.0,29.87,WSW,257,5.0,13.0,63,0.00,,,0.00,,2013-12-10 20:42:00,
2013-12-10 15:53:00,25.0,14.0,29.89,West,271,6.0,18.0,63,0.00,,,0.00,,2013-12-10 20:53:00,
2013-12-10 16:12:00,25.0,13.0,29.89,West,263,6.0,17.0,61,0.00,,,0.00,,2013-12-10 21:12:00,
2013-12-10 16:22:00,24.0,13.0,29.90,WSW,254,4.0,17.0,62,0.00,,,0.00,,2013-12-10 21:22:00,
2013-12-10 16:43:00,24.0,12.0,29.89,WSW,252,5.0,14.0,60,0.00,,,0.00,,2013-12-10 21:43:00,
2013-12-10 16:54:00,24.0,11.0,29.90,WNW,290,11.0,17.0,57,0.00,,,0.00,,2013-12-10 21:54:00,
2013-12-10 17:13:00,24.0,12.0,29.90,WSW,256,3.0,9.0,60,0.00,,,0.00,,2013-12-10 22:13:00,
2013-12-10 17:23:00,23.0,12.0,29.90,WSW,239,3.0,12.0,61,0.00,,,0.00,,2013-12-10 22:23:00,
2013-12-10 17:43:00,22.0,12.0,29.90,SSW,210,3.0,8.0,64,0.00,,,0.00,,2013-12-10 22:43:00,
2013-12-10 17:53:00,22.0,12.0,29.91,SSW,194,4.0,8.0,66,0.00,,,0.00,,2013-12-10 22:53:00,
2013-12-10 18:12:00,21.0,12.0,29.91,SW,222,2.0,9.0,67,0.00,,,0.00,,2013-12-10 23:12:00,
2013-12-10 18:22:00,21.0,12.0,29.92,WSW,240,2.0,7.0,67,0.00,,,0.00,,2013-12-10 23:22:00,
2013-12-10 18:43:00,20.0,11.0,29.92,SSW,204,2.0,5.0,69,0.00,,,0.00,,2013-12-10 23:43:00,
2013-12-10 18:53:00,20.0,11.0,29.92,West,259,3.0,8.0,69,0.00,,,0.00,,2013-12-10 23:53:00,
2013-12-10 19:12:00,20.0,11.0,29.92,SE,143,2.0,5.0,69,0.00,,,0.00,,2013-12-11 00:12:00,
2013-12-10 19:23:00,19.0,11.0,29.93,SSW,207,2.0,6.0,70,0.00,,,0.00,,2013-12-11 00:23:00,
2013-12-10 19:42:00,19.0,11.0,29.93,SW,228,1.0,4.0,72,0.00,,,0.00,,2013-12-11 00:42:00,
2013-12-10 19:52:00,19.0,12.0,29.94,SSE,160,2.0,10.0,73,0.00,,,0.00,,2013-12-11 00:52:00,
2013-12-10 20:11:00,19.0,11.0,29.95,SW,226,3.0,6.0,70,0.00,,,0.00,,2013-12-11 01:11:00,
2013-12-10 20:22:00,20.0,12.0,29.96,SSW,200,2.0,9.0,71,0.00,,,0.00,,2013-12-11 01:22:00,
2013-12-10 20:42:00,20.0,11.0,29.96,SW,222,1.0,7.0,67,0.00,,,0.00,,2013-12-11 01:42:00,
2013-12-10 20:52:00,20.0,11.0,29.97,SE,143,4.0,11.0,66,0.00,,,0.00,,2013-12-11 01:52:00,
2013-12-10 21:12:00,20.0,11.0,29.96,SSW,210,4.0,9.0,66,0.00,,,0.00,,2013-12-11 02:12:00,
2013-12-10 21:22:00,20.0,10.0,29.97,SSW,203,5.0,11.0,64,0.00,,,0.00,,2013-12-11 02:22:00,
2013-12-10 21:52:00,20.0,9.0,29.98,WSW,243,4.0,14.0,63,0.00,,,0.00,,2013-12-11 02:52:00,
2013-12-10 22:11:00,21.0,10.0,30.00,SSW,193,3.0,16.0,62,0.00,,,0.00,,2013-12-11 03:11:00,
2013-12-10 22:22:00,20.0,9.0,30.01,SSE,166,7.0,12.0,63,0.00,,,0.00,,2013-12-11 03:22:00,
2013-12-10 22:43:00,20.0,9.0,30.01,SW,225,8.0,14.0,62,0.00,,,0.00,,2013-12-11 03:43:00,
2013-12-10 22:54:00,20.0,9.0,30.01,WSW,248,4.0,12.0,63,0.00,,,0.00,,2013-12-11 03:54:00,
2013-12-10 23:13:00,20.0,10.0,30.02,SSW,210,8.0,13.0,64,0.00,,,0.00,,2013-12-11 04:13:00,
2013-12-10 23:23:00,20.0,10.0,30.02,West,266,3.0,16.0,64,0.00,,,0.00,,2013-12-11 04:23:00,
2013-12-10 23:43:00,20.0,10.0,30.03,SW,214,7.0,19.0,65,0.00,,,0.00,,2013-12-11 04:43:00,
2013-12-10 23:53:00,20.0,10.0,30.03,WSW,238,7.0,17.0,65,0.00,,,0.00,,2013-12-11 04:53:00,